Flag for Tonga Weather past 2 weeks in Nukualofa, Tonga

Now
77 °F

Passing clouds.


Feels Like: 79 °F
Forecast: 69 / 76 °F
Wind: 13 mph from South

Location: Fua'Amotu

Current Time: Sep 18, 2014 at 3:48:32 PM

Latest Report: Sep 18, 2014 at 3:00 PM


Visibility: N/A

Pressure: 30.04 "Hg

Humidity: 61%

Dew point: 63 °F

Location of NukualofaLocation

Historic Weather in Nukualofa — Graph

°F

Nukualofa temperature yesterday

Maximum temperature yesterday: 77 °F (at 12:00 PM)
Minimum temperature yesterday: 68 °F (at 12:00 AM)
Average temperature yesterday: 71 °F

Past Weeks' High & Low Weather Summary

 TemperatureHumidityPressure
High81 °F (Sep 3, 2:00 PM)100% (Sep 4, 12:00 AM)30.15 "Hg (Sep 4, 12:00 AM)
Low64 °F (Sep 4, 12:00 AM)57% (Sep 8, 4:00 PM)29.89 "Hg (Sep 15, 3:00 PM)
Average73 °F79%30.03 "Hg
* Reported Sep 3 2:00 PM — Sep 18 2:00 PM, Nukualofa, Weather by CustomWeather, © 2014

Note: Actual official high and low records may vary slightly from our data, if they occured in-between our weather recording intervals... More about our weather records

Advertising

Nukualofa weather history for previous 24 hours

 ConditionsComfort  
Time TempWeatherWind HumidityBarometerVisibility
2:00 PM
Sep 18
77 °FPassing clouds.12 mph61%30.04 "HgN/A
1:00 PM77 °FPassing clouds.5 mph61%30.07 "HgN/A
12:00 PM77 °FPassing clouds.3 mph61%30.09 "HgN/A
11:00 AM75 °FPassing clouds.6 mph69%30.09 "HgN/A
10:00 AM75 °FPassing clouds.3 mph65%30.12 "HgN/A
8:00 AM70 °FPassing clouds.No wind83%30.09 "HgN/A
7:00 AM68 °FPassing clouds.No wind83%30.07 "HgN/A
6:00 AM68 °FPassing clouds.No wind83%30.07 "HgN/A
5:00 AM70 °FPassing clouds.2 mph78%30.07 "HgN/A
4:00 AM70 °FPassing clouds.No wind78%30.04 "HgN/A
3:00 AM68 °FPassing clouds.No wind83%30.07 "HgN/A
2:00 AM68 °FPassing clouds.No wind88%30.07 "HgN/A
1:00 AM68 °FPassing clouds.No wind88%30.07 "HgN/A
12:00 AM68 °FPassing clouds.No wind88%30.07 "HgN/A
11:00 PM
Sep 17
68 °FPassing clouds.No wind88%30.07 "HgN/A
10:00 PM70 °FPassing clouds.No wind83%30.07 "HgN/A
9:00 PM72 °FPassing clouds.2 mph78%30.07 "HgN/A
8:00 PM72 °FPassing clouds.2 mph78%30.04 "HgN/A
7:00 PM72 °FPartly cloudy.No wind78%30.04 "HgN/A
6:00 PM73 °FPassing clouds.3 mph74%30.01 "HgN/A
5:00 PM73 °FScattered clouds.14 mph78%30.01 "HgN/A
4:00 PM73 °FPartly sunny.8 mph78%30.01 "HgN/A
3:00 PM73 °FDrizzle. Partly sunny.13 mph74%30.01 "HgN/A
Weather by CustomWeather, © 2014

See weather overviewHow to use our weather pages